Time,TemperatureF,DewpointF,PressureIn,WindDirection,WindDirectionDegrees,WindSpeedMPH,WindSpeedGustMPH,Humidity,HourlyPrecipIn,Conditions,Clouds,dailyrainin,SoftwareType,DateUTC
2013-01-31 00:01:00,16.0,8.0,-100.00,West,275,14.0,19.0,71,0.01,,,-99.99,,2013-01-31 06:01:00,
2013-01-31 00:10:00,16.0,8.0,-100.00,West,275,14.0,19.0,71,0.01,,,-99.99,,2013-01-31 06:10:00,
2013-01-31 08:02:00,4.0,-5.0,-100.00,NW,310,15.0,26.0,65,0.00,,,-99.99,,2013-01-31 14:02:00,
2013-01-31 08:11:00,4.0,-5.0,-100.00,WNW,300,13.0,21.0,65,0.00,,,-99.99,,2013-01-31 14:11:00,
2013-01-31 08:22:00,4.0,-5.0,-100.00,WNW,300,14.0,21.0,65,0.00,,,-99.99,,2013-01-31 14:22:00,
2013-01-31 08:32:00,5.0,-5.0,-100.00,WNW,300,12.0,23.0,64,0.00,,,-99.99,,2013-01-31 14:32:00,
2013-01-31 08:42:00,5.0,-5.0,-100.00,WNW,300,12.0,23.0,64,0.00,,,-99.99,,2013-01-31 14:42:00,
2013-01-31 08:52:00,5.0,-5.0,-100.00,NW,310,12.0,21.0,65,0.00,,,-99.99,,2013-01-31 14:52:00,
2013-01-31 09:03:00,5.0,-5.0,-100.00,NW,310,12.0,21.0,65,0.00,,,-99.99,,2013-01-31 15:03:00,
2013-01-31 09:12:00,5.0,-5.0,-100.00,NW,310,12.0,21.0,65,0.00,,,-99.99,,2013-01-31 15:12:00,
2013-01-31 09:22:00,5.0,-5.0,-100.00,NW,310,12.0,21.0,65,0.00,,,-99.99,,2013-01-31 15:22:00,
2013-01-31 09:32:00,5.0,-5.0,-100.00,WNW,300,17.0,24.0,64,0.00,,,-99.99,,2013-01-31 15:32:00,
2013-01-31 09:42:00,5.0,-5.0,-100.00,WNW,300,17.0,24.0,64,0.00,,,-99.99,,2013-01-31 15:42:00,
2013-01-31 09:52:00,5.0,-4.0,-100.00,NW,305,18.0,26.0,64,0.00,,,-99.99,,2013-01-31 15:52:00,
2013-01-31 10:03:00,5.0,-4.0,-100.00,NW,305,18.0,26.0,64,0.00,,,-99.99,,2013-01-31 16:03:00,
2013-01-31 10:12:00,6.0,-4.0,-100.00,NW,305,17.0,24.0,63,0.00,,,-99.99,,2013-01-31 16:12:00,
2013-01-31 10:21:00,6.0,-4.0,-100.00,NW,315,14.0,24.0,63,0.00,,,-99.99,,2013-01-31 16:21:00,
2013-01-31 10:33:00,6.0,-4.0,-100.00,WNW,290,18.0,24.0,62,0.00,,,-99.99,,2013-01-31 16:33:00,
2013-01-31 10:42:00,6.0,-4.0,-100.00,NW,315,14.0,26.0,62,0.00,,,-99.99,,2013-01-31 16:42:00,
2013-01-31 10:51:00,6.0,-4.0,-100.00,WNW,295,14.0,27.0,63,0.00,,,-99.99,,2013-01-31 16:51:00,
2013-01-31 11:02:00,6.0,-4.0,-100.00,WNW,295,14.0,27.0,63,0.00,,,-99.99,,2013-01-31 17:02:00,
2013-01-31 11:12:00,6.0,-4.0,-100.00,NW,305,16.0,23.0,63,0.00,,,-99.99,,2013-01-31 17:12:00,
2013-01-31 11:23:00,6.0,-4.0,-100.00,WNW,295,21.0,27.0,62,0.00,,,-99.99,,2013-01-31 17:23:00,
2013-01-31 11:32:00,6.0,-3.0,-100.00,NW,315,14.0,26.0,62,0.00,,,-99.99,,2013-01-31 17:32:00,
2013-01-31 11:43:00,6.0,-3.0,-100.00,NW,315,14.0,26.0,62,0.00,,,-99.99,,2013-01-31 17:43:00,
2013-01-31 11:53:00,6.0,-4.0,-100.00,WNW,300,19.0,26.0,62,0.00,,,-99.99,,2013-01-31 17:53:00,
2013-01-31 12:02:00,6.0,-4.0,-100.00,WNW,300,19.0,26.0,62,0.00,,,-99.99,,2013-01-31 18:02:00,
2013-01-31 12:12:00,6.0,-4.0,-100.00,WNW,290,21.0,29.0,62,0.00,,,-99.99,,2013-01-31 18:12:00,
2013-01-31 12:22:00,6.0,-4.0,-100.00,WNW,300,18.0,29.0,63,0.00,,,-99.99,,2013-01-31 18:22:00,
2013-01-31 12:32:00,7.0,-3.0,-100.00,West,280,22.0,26.0,63,0.00,,,-99.99,,2013-01-31 18:32:00,
2013-01-31 12:43:00,7.0,-3.0,-100.00,West,280,22.0,26.0,63,0.00,,,-99.99,,2013-01-31 18:43:00,
2013-01-31 12:52:00,7.0,-3.0,-100.00,WNW,295,21.0,32.0,62,0.00,,,-99.99,,2013-01-31 18:52:00,
2013-01-31 13:02:00,7.0,-3.0,-100.00,WNW,295,21.0,32.0,62,0.00,,,-99.99,,2013-01-31 19:02:00,
2013-01-31 13:12:00,7.0,-3.0,-100.00,WNW,290,20.0,27.0,63,0.00,,,-99.99,,2013-01-31 19:12:00,
2013-01-31 13:21:00,7.0,-3.0,-100.00,WNW,300,17.0,29.0,64,0.00,,,-99.99,,2013-01-31 19:21:00,
2013-01-31 13:32:00,6.0,-3.0,-100.00,NW,305,20.0,28.0,63,0.00,,,-99.99,,2013-01-31 19:32:00,
2013-01-31 13:42:00,6.0,-3.0,-100.00,NW,305,20.0,28.0,63,0.00,,,-99.99,,2013-01-31 19:42:00,
2013-01-31 13:51:00,7.0,-3.0,-100.00,WNW,290,24.0,33.0,61,0.00,,,-99.99,,2013-01-31 19:51:00,
2013-01-31 14:02:00,7.0,-3.0,-100.00,WNW,290,24.0,33.0,61,0.00,,,-99.99,,2013-01-31 20:02:00,
2013-01-31 14:11:00,7.0,-4.0,-100.00,WNW,300,19.0,31.0,60,0.00,,,-99.99,,2013-01-31 20:11:00,
2013-01-31 14:21:00,6.0,-4.0,-100.00,WNW,290,20.0,30.0,60,0.00,,,-99.99,,2013-01-31 20:21:00,
2013-01-31 14:31:00,6.0,-4.0,-100.00,WNW,295,22.0,30.0,61,0.00,,,-99.99,,2013-01-31 20:31:00,
2013-01-31 14:42:00,6.0,-4.0,-100.00,WNW,295,22.0,30.0,61,0.00,,,-99.99,,2013-01-31 20:42:00,
2013-01-31 14:52:00,7.0,-4.0,-100.00,WNW,295,19.0,29.0,61,0.00,,,-99.99,,2013-01-31 20:52:00,
2013-01-31 15:02:00,7.0,-4.0,-100.00,WNW,295,19.0,29.0,61,0.00,,,-99.99,,2013-01-31 21:02:00,
2013-01-31 15:12:00,6.0,-4.0,-100.00,WNW,300,19.0,31.0,61,0.00,,,-99.99,,2013-01-31 21:12:00,
2013-01-31 15:21:00,6.0,-5.0,-100.00,WNW,295,24.0,35.0,60,0.00,,,-99.99,,2013-01-31 21:21:00,
2013-01-31 15:32:00,6.0,-5.0,-100.00,WNW,295,22.0,30.0,60,0.00,,,-99.99,,2013-01-31 21:32:00,
2013-01-31 15:42:00,6.0,-5.0,-100.00,WNW,295,22.0,30.0,60,0.00,,,-99.99,,2013-01-31 21:42:00,
2013-01-31 15:52:00,6.0,-5.0,-100.00,NW,305,22.0,33.0,60,0.00,,,-99.99,,2013-01-31 21:52:00,
2013-01-31 16:02:00,6.0,-5.0,-100.00,NW,305,22.0,33.0,60,0.00,,,-99.99,,2013-01-31 22:02:00,
2013-01-31 16:11:00,5.0,-5.0,-100.00,WNW,300,21.0,32.0,61,0.00,,,-99.99,,2013-01-31 22:11:00,
2013-01-31 16:22:00,5.0,-5.0,-100.00,WNW,300,22.0,35.0,60,0.00,,,-99.99,,2013-01-31 22:22:00,
2013-01-31 16:32:00,5.0,-6.0,-100.00,WNW,300,20.0,31.0,59,0.00,,,-99.99,,2013-01-31 22:32:00,
2013-01-31 16:42:00,5.0,-6.0,-100.00,WNW,300,20.0,31.0,59,0.00,,,-99.99,,2013-01-31 22:42:00,
2013-01-31 16:51:00,5.0,-6.0,-100.00,WNW,290,24.0,34.0,59,0.00,,,-99.99,,2013-01-31 22:51:00,
2013-01-31 17:02:00,5.0,-6.0,-100.00,WNW,290,24.0,34.0,59,0.00,,,-99.99,,2013-01-31 23:02:00,
2013-01-31 17:12:00,5.0,-6.0,-100.00,NW,305,21.0,27.0,60,0.00,,,-99.99,,2013-01-31 23:12:00,
2013-01-31 17:21:00,5.0,-5.0,-100.00,WNW,290,20.0,29.0,61,0.00,,,-99.99,,2013-01-31 23:21:00,
2013-01-31 17:32:00,5.0,-5.0,-100.00,WNW,300,21.0,29.0,61,0.00,,,-99.99,,2013-01-31 23:32:00,
2013-01-31 17:42:00,5.0,-5.0,-100.00,WNW,300,14.0,27.0,60,0.00,,,-99.99,,2013-01-31 23:42:00,
2013-01-31 17:52:00,5.0,-6.0,-100.00,WNW,300,16.0,29.0,60,0.00,,,-99.99,,2013-01-31 23:52:00,
2013-01-31 18:01:00,5.0,-6.0,-100.00,WNW,300,16.0,29.0,60,0.00,,,-99.99,,2013-02-01 00:01:00,
2013-01-31 18:11:00,5.0,-6.0,-100.00,WNW,300,17.0,24.0,60,0.00,,,-99.99,,2013-02-01 00:11:00,
2013-01-31 18:21:00,5.0,-6.0,-100.00,WNW,300,18.0,24.0,60,0.00,,,-99.99,,2013-02-01 00:21:00,
2013-01-31 18:32:00,4.0,-7.0,-100.00,WNW,295,16.0,29.0,59,0.00,,,-99.99,,2013-02-01 00:32:00,
2013-01-31 18:42:00,4.0,-7.0,-100.00,WNW,295,16.0,29.0,59,0.00,,,-99.99,,2013-02-01 00:42:00,
2013-01-31 18:51:00,4.0,-7.0,-100.00,WNW,295,18.0,26.0,59,0.00,,,-99.99,,2013-02-01 00:51:00,
2013-01-31 19:01:00,4.0,-7.0,-100.00,WNW,295,18.0,26.0,59,0.00,,,-99.99,,2013-02-01 01:01:00,
2013-01-31 19:11:00,4.0,-7.0,-100.00,WNW,300,16.0,24.0,59,0.00,,,-99.99,,2013-02-01 01:11:00,
2013-01-31 19:21:00,4.0,-7.0,-100.00,NW,310,16.0,21.0,59,0.00,,,-99.99,,2013-02-01 01:21:00,
2013-01-31 19:32:00,4.0,-7.0,-100.00,WNW,300,17.0,24.0,59,0.00,,,-99.99,,2013-02-01 01:32:00,
2013-01-31 19:41:00,4.0,-7.0,-100.00,WNW,300,17.0,24.0,59,0.00,,,-99.99,,2013-02-01 01:41:00,
2013-01-31 19:51:00,3.0,-7.0,-100.00,WNW,295,17.0,22.0,59,0.00,,,-99.99,,2013-02-01 01:51:00,
2013-01-31 20:01:00,3.0,-7.0,-100.00,WNW,295,17.0,22.0,59,0.00,,,-99.99,,2013-02-01 02:01:00,
2013-01-31 20:11:00,3.0,-7.0,-100.00,WNW,300,14.0,24.0,59,0.00,,,-99.99,,2013-02-01 02:11:00,
2013-01-31 20:21:00,3.0,-8.0,-100.00,NW,305,12.0,26.0,59,0.00,,,-99.99,,2013-02-01 02:21:00,
2013-01-31 20:31:00,3.0,-8.0,-100.00,WNW,300,16.0,22.0,60,0.00,,,-99.99,,2013-02-01 02:31:00,
2013-01-31 20:41:00,3.0,-8.0,-100.00,WNW,300,16.0,22.0,60,0.00,,,-99.99,,2013-02-01 02:41:00,
2013-01-31 20:52:00,2.0,-8.0,-100.00,WNW,290,14.0,22.0,60,0.00,,,-99.99,,2013-02-01 02:52:00,
2013-01-31 21:02:00,2.0,-8.0,-100.00,WNW,290,14.0,22.0,60,0.00,,,-99.99,,2013-02-01 03:02:00,
2013-01-31 21:12:00,2.0,-8.0,-100.00,NW,305,17.0,25.0,61,0.00,,,-99.99,,2013-02-01 03:12:00,
2013-01-31 21:21:00,2.0,-8.0,-100.00,WNW,290,13.0,23.0,60,0.00,,,-99.99,,2013-02-01 03:21:00,
2013-01-31 21:32:00,2.0,-9.0,-100.00,WNW,290,14.0,29.0,61,0.00,,,-99.99,,2013-02-01 03:32:00,
2013-01-31 21:42:00,2.0,-9.0,-100.00,WNW,290,14.0,29.0,61,0.00,,,-99.99,,2013-02-01 03:42:00,
2013-01-31 21:51:00,2.0,-9.0,-100.00,West,280,15.0,28.0,61,0.00,,,-99.99,,2013-02-01 03:51:00,
2013-01-31 22:02:00,2.0,-9.0,-100.00,West,280,15.0,28.0,61,0.00,,,-99.99,,2013-02-01 04:02:00,
2013-01-31 22:11:00,1.0,-9.0,-100.00,WNW,290,15.0,23.0,61,0.00,,,-99.99,,2013-02-01 04:11:00,
2013-01-31 22:21:00,1.0,-9.0,-100.00,WNW,285,17.0,25.0,62,0.00,,,-99.99,,2013-02-01 04:21:00,
2013-01-31 22:32:00,1.0,-9.0,-100.00,WNW,285,17.0,24.0,62,0.00,,,-99.99,,2013-02-01 04:32:00,
2013-01-31 22:41:00,1.0,-9.0,-100.00,WNW,285,17.0,24.0,62,0.00,,,-99.99,,2013-02-01 04:41:00,
2013-01-31 22:51:00,0.0,-10.0,-100.00,WNW,290,19.0,23.0,62,0.00,,,-99.99,,2013-02-01 04:51:00,
2013-01-31 23:03:00,0.0,-10.0,-100.00,WNW,290,19.0,23.0,62,0.00,,,-99.99,,2013-02-01 05:03:00,
2013-01-31 23:11:00,0.0,-10.0,-100.00,WNW,290,14.0,23.0,62,0.00,,,-99.99,,2013-02-01 05:11:00,
2013-01-31 23:22:00,0.0,-10.0,-100.00,WNW,295,15.0,19.0,62,0.00,,,-99.99,,2013-02-01 05:22:00,
2013-01-31 23:32:00,-1.0,-10.0,-100.00,WNW,300,12.0,25.0,62,0.00,,,-99.99,,2013-02-01 05:32:00,
2013-01-31 23:41:00,-1.0,-10.0,-100.00,WNW,300,12.0,25.0,62,0.00,,,-99.99,,2013-02-01 05:41:00,
2013-01-31 23:52:00,-1.0,-10.0,-100.00,WNW,295,16.0,21.0,62,0.00,,,-99.99,,2013-02-01 05:52:00,